Flag for Switzerland Weather past 2 weeks in Horgen, Zurich, Switzerland

Now
36 °F

Chilly.


Feels Like: 29 °F
Forecast: 30 / 35 °F
Wind: 9 mph from Southwest

Location: Zurich Town / Ville.

Current Time: Jan 29, 2015 at 3:51:59 PM

Latest Report: Jan 29, 2015 at 3:00 PM


Visibility: N/A

Pressure: 29.32 "Hg

Humidity: 89%

Dew point: 33 °F

Location of HorgenLocation

Historic Weather in Horgen — Graph

°F

Horgen temperature yesterday

Maximum temperature yesterday: 36 °F (at 9:00 PM)
Minimum temperature yesterday: 29 °F (at 8:00 AM)
Average temperature yesterday: 33 °F

Past Weeks' High & Low Weather Summary

 TemperatureHumidityPressure
High47 °F (Jan 15, 9:00 PM)100% (Jan 17, 8:00 AM)30.47 "Hg (Jan 17, 8:00 AM)
Low26 °F (Jan 26, 7:00 AM)51% (Jan 15, 8:00 PM)29.38 "Hg (Jan 29, 2:00 PM)
Average33 °F87%30.05 "Hg
* Reported Jan 14 2:00 PM — Jan 29 2:00 PM, Horgen, Weather by CustomWeather, © 2014

Note: Actual official high and low records may vary slightly from our data, if they occured in-between our weather recording intervals... More about our weather records

Advertising

Horgen weather history for previous 24 hours

 ConditionsComfort  
Time TempWeatherWind HumidityBarometerVisibility
2:00 PM
Jan 29
36 °FChilly.10 mph88%29.38 "HgN/A
1:00 PM35 °FOvercast.7 mph94%29.44 "HgN/A
12:00 PM34 °FChilly.7 mph95%29.50 "HgN/A
11:00 AM33 °FChilly.7 mph97%29.58 "HgN/A
10:00 AM32 °FChilly.3 mph96%29.61 "HgN/A
9:00 AM33 °FChilly.5 mph88%29.64 "HgN/A
8:00 AM33 °FChilly.3 mph92%29.65 "HgN/A
7:00 AM32 °FChilly.3 mph99%29.67 "HgN/A
6:00 AM32 °FChilly.6 mph99%29.68 "HgN/A
5:00 AM32 °FChilly.6 mph98%29.69 "HgN/A
4:00 AM33 °FChilly.9 mph97%29.67 "HgN/A
3:00 AM34 °FChilly.14 mph94%29.68 "HgN/A
2:00 AM36 °FChilly.17 mph86%29.66 "HgN/A
1:00 AM37 °FChilly.20 mph80%29.67 "HgN/A
12:00 AM35 °FChilly.17 mph83%29.70 "HgN/A
11:00 PM
Jan 28
36 °FChilly.15 mph74%29.73 "HgN/A
10:00 PM36 °FChilly.14 mph71%29.76 "HgN/A
9:00 PM36 °FChilly.18 mph66%29.80 "HgN/A
8:00 PM35 °FChilly.15 mph69%29.85 "HgN/A
7:00 PM35 °FChilly.16 mph70%29.90 "HgN/A
6:00 PM34 °FChilly.13 mph73%29.96 "HgN/A
5:00 PM34 °FChilly.9 mph70%29.97 "HgN/A
4:00 PM35 °FChilly.8 mph67%29.98 "HgN/A
3:00 PM35 °FChilly.10 mph67%30.04 "HgN/A
Weather by CustomWeather, © 2014

See weather overviewHow to use our weather pages